Regional Weather Roundup
Issued by NWS Cleveland, OH

Home | Current Version | Previous Version | Graphics & Text | Print | Product List | Glossary On
Versions: 1 2 3 4 5 6 7 8 9 10 11 12 13 14 15 16 17 18 19 20 21 22 23 24 25 26 27 28 29 30 31 32 33 34 35 36 37 38 39 40 41 42 43 44 45 46 47 48 49 50
000
ASUS41 KCLE 050810
RWRCLE
OHIO REGIONAL WEATHER ROUNDUP
NATIONAL WEATHER SERVICE CLEVELAND, OH
400 AM EDT WED AUG 05 2015

NOTE: "FAIR" INDICATES FEW OR NO CLOUDS BELOW 12,000 FEET WITH NO
SIGNIFICANT WEATHER AND/OR OBSTRUCTIONS TO VISIBILITY.

OHZ001>008-015>018-024>027-034-035-043-044-050900-
   NORTHWEST OHIO

CITY           SKY/WX    TMP DP  RH WIND       PRES   REMARKS
DEFIANCE       CLEAR     59  56  89 CALM      30.03R
FINDLAY        CLEAR     60  57  89 CALM      30.02R
TOLEDO EXPRESS CLEAR     61  55  81 W5        30.02R
TOLEDO EXEC    CLEAR     62  54  74 NW6       30.02S
LIMA           CLEAR     57  56  96 CALM      30.03S
$$

OHZ009>014-019>023-028>033-038-089-050900-
   NORTHEAST OHIO

CITY           SKY/WX    TMP DP  RH WIND       PRES   REMARKS
CLE-HOPKINS    PTCLDY    61  58  90 SW3       30.00F
CLE-LAKEFRONT  CLEAR     73  58  59 NW13      29.96F
CUY CO. ARPT   NOT AVBL
LORAIN-ELYRIA  CLEAR     60  57  89 W3        30.00S
ASHTABULA      CLEAR     57  56  96 CALM      29.98S
AKRON-CANTON   CLEAR     64  56  75 W5        30.00S
WOOSTER        CLEAR     55  53  93 CALM      30.01S
MANSFIELD      CLEAR     63  56  78 W5        30.02S
YOUNGSTOWN     PTCLDY    62  56  80 W5        29.98S
$$

OHZ042-051>053-060>062-070>072-077>081-050900-
  SOUTHWEST OHIO

CITY           SKY/WX    TMP DP  RH WIND       PRES   REMARKS
CINC-COVINGTON CLOUDY    69  62  78 CALM      30.03S
CINC-LUNKEN    CLOUDY    66  66 100 CALM      30.03R
HAMILTON       CLOUDY    65  64  97 CALM      30.03S
DAYTON         PTCLDY    64  59  83 NW6       30.04S
WRIGHT-PAT AFB PTCLDY    63  61  93 CALM      30.02S
DAYTON GENERAL MOCLDY    66  58  75 NE3       30.03R
WILMINGTON     MOCLDY    64  60  87 CALM      30.03R
$$

OHZ036-037-039>041-045>050-054>059-063>069-073>076-082>088-050900-
  CENTRAL AND SOUTHEAST OHIO

CITY           SKY/WX    TMP DP  RH WIND       PRES   REMARKS
COLUMBUS       MOCLDY    62  58  86 CALM      30.01S
OSU AIRPORT    CLEAR     62  59  90 CALM      30.02S
BOLTON FIELD   PTCLDY    63  60  90 W9        30.02S
RICKENBACK AFB PTCLDY    63  60  91 CALM      30.01S
NEWARK         MOCLDY    59  57  93 CALM      30.01S
MARION         CLEAR     61  58  90 W3        30.02S
LANCASTER      MOCLDY    59  56  89 CALM      30.01F
ZANESVILLE     MOCLDY    61  57  87 CALM      30.01S
NEW PHILLY     FOG       57  56  96 CALM      30.01S VSB 1
$$



USA.gov is the U.S. government's official web portal to all federal, state and local government web resources and services.